Wind_Speed
45 46 47 48 49 50 52 54 55 56 57 58 60 61 63 64 66 67 68 69 71 72 74 76 78 80 82 84 86 88 90 91 92 93 94 94 94 94
45 47 49 51 52 53 56 58 59 60 61 62 63 65 66 67 68 69 71 72 74 77 79 82 84 86 88 89 91 91 92 91 90 88 86 85 83 82
46 49 51 53 55 56 58 60 62 64 64 65 67 68 69 70 71 73 75 77 79 82 85 88 89 91 92 91 90 88 85 82 79 77 75 72 69 67
48 51 53 56 58 60 61 63 64 66 67 68 69 70 72 73 75 77 79 82 85 88 90 92 92 91 89 86 82 78 74 71 68 65 61 59 57 55
50 53 56 59 60 62 63 65 66 67 69 70 71 72 74 77 79 81 84 87 90 92 92 91 88 84 80 76 72 68 64 61 57 54 52 51 49 47
53 56 59 60 62 64 65 66 68 69 71 72 73 75 77 80 83 85 87 89 89 89 87 82 78 74 70 66 63 59 56 52 49 47 46 45 43 43
56 59 61 62 64 65 67 68 69 70 72 73 75 77 81 84 87 89 88 85 81 79 75 71 68 64 61 59 56 53 50 47 45 44 43 41 41 40
57 60 62 63 65 66 68 69 71 72 74 77 80 83 86 88 88 85 82 76 68 66 64 59 58 56 54 53 51 50 47 44 43 42 41 40 40 39
59 61 62 64 65 67 68 70 72 76 79 82 84 87 87 85 81 74 68 63 58 57 55 51 51 49 49 49 48 47 45 43 41 40 39 39 39 38
59 61 62 63 65 67 70 72 76 80 83 85 85 84 79 73 67 61 56 53 50 52 53 48 47 46 44 45 46 45 43 41 39 38 38 38 37 37
58 60 62 64 67 70 73 76 79 81 82 81 78 72 66 61 56 53 50 49 47 47 50 48 45 42 40 41 43 42 40 38 36 36 36 36 36 35
58 61 64 67 71 73 75 77 77 77 75 71 65 60 56 53 51 50 49 48 47 45 46 45 42 40 35 35 38 39 37 34 32 32 32 32 32 32
59 63 66 70 73 75 76 75 73 69 64 57 53 51 50 49 50 49 48 48 47 45 44 41 38 36 34 31 32 35 35 32 30 29 28 28 29 30
62 66 70 72 74 74 72 69 64 57 51 47 46 46 47 47 47 47 47 47 45 43 41 38 35 32 31 29 28 30 32 30 27 25 25 25 25 26
66 70 72 72 71 68 63 57 51 45 43 42 43 44 45 45 45 44 44 42 42 41 39 36 32 29 27 25 23 25 25 26 25 23 22 21 22 24
69 70 70 67 63 57 51 45 40 39 39 40 41 43 43 44 43 42 39 38 36 36 37 34 30 27 24 22 21 20 21 21 22 21 19 19 21 22
67 66 62 57 51 45 40 37 36 36 37 39 40 41 41 41 40 39 37 35 33 31 29 30 28 25 23 20 17 16 16 17 18 18 18 18 20 21
61 56 51 45 40 36 33 33 34 34 36 37 39 39 38 38 37 36 34 32 30 27 25 23 22 21 22 21 17 12 12 13 14 15 16 16 19 22
52 46 40 36 32 30 30 31 31 32 34 36 37 37 36 35 34 33 31 29 27 24 22 20 18 16 16 17 18 14 11 12 13 15 16 17 19 22
42 36 32 29 28 28 29 29 29 31 33 34 35 35 34 33 33 31 29 26 23 21 20 19 17 16 15 14 15 16 14 12 13 15 17 19 20 21
34 30 27 26 26 27 27 28 29 30 32 33 33 33 33 32 31 29 27 24 22 19 17 17 17 17 16 15 15 16 17 16 16 16 17 17 18 20
28 26 24 24 25 26 27 28 29 30 31 31 31 31 32 31 29 28 25 23 21 20 19 18 18 18 17 17 15 15 15 17 18 18 17 16 17 18
25 24 23 23 24 25 26 28 28 29 30 30 30 30 30 29 28 26 24 23 22 21 20 19 19 19 18 17 16 15 15 16 17 18 18 18 18 18
Wind_Direction
286 287 289 292 293 293 294 295 295 294 294 294 294 294 294 294 294 294 293 293 293 292 292 291 290 289 289 288 287 286 285 283 282 280 279 278 276 274
286 288 291 292 293 293 294 295 295 295 295 295 295 295 295 295 294 294 294 294 293 293 292 292 292 291 290 289 288 287 286 285 283 282 280 278 276 274
287 290 292 293 293 293 294 295 296 296 296 297 297 297 297 296 296 296 296 296 295 295 295 294 294 293 292 291 289 288 287 285 283 281 279 277 275 273
288 290 291 292 292 294 295 295 296 297 297 297 298 297 297 297 297 297 297 297 297 297 296 295 295 294 292 291 290 288 286 284 282 280 277 275 273 271
288 290 290 291 292 294 295 296 297 297 298 298 298 298 298 298 298 299 299 299 299 298 297 296 295 294 293 291 290 288 285 283 280 277 274 273 271 269
288 288 290 292 293 295 296 297 298 299 299 299 299 299 299 299 300 300 300 300 299 298 297 296 295 294 293 291 289 287 284 281 278 275 273 271 268 266
285 289 292 293 295 296 298 299 299 299 299 299 300 300 300 300 301 301 301 300 299 297 296 296 295 294 293 292 289 286 283 280 276 273 271 269 266 265
288 292 294 296 297 299 300 300 301 301 301 301 301 302 302 302 302 302 301 300 298 296 296 295 295 294 293 291 289 286 283 280 276 273 270 267 265 263
292 294 296 298 299 300 301 302 302 302 302 303 303 303 303 304 303 303 302 302 300 297 295 295 294 294 293 290 288 286 283 281 277 273 269 266 264 262
294 296 298 300 301 301 302 303 303 303 303 304 305 306 305 305 305 304 303 302 301 299 298 297 295 294 293 290 288 286 284 281 277 272 268 265 263 260
298 299 300 301 302 302 303 304 305 305 306 307 307 306 306 306 305 305 305 304 304 301 300 300 298 295 293 291 288 287 286 282 277 272 268 264 262 259
301 302 303 304 304 304 305 306 306 307 308 308 307 307 307 307 307 307 307 307 306 304 301 302 300 296 292 289 288 288 287 285 279 273 269 264 260 257
303 304 304 305 305 306 307 307 308 309 308 308 308 309 309 310 310 310 310 310 309 308 305 304 301 298 295 290 285 286 287 285 281 276 270 265 260 256
305 306 306 306 307 308 309 309 310 310 311 311 312 312 312 313 313 312 312 312 311 310 309 308 306 301 297 292 286 283 285 285 281 276 271 266 260 256
308 308 308 308 309 310 311 311 312 313 314 315 316 316 316 316 315 314 314 314 314 312 312 312 311 307 302 297 289 285 284 284 282 278 273 268 262 260
310 310 310 311 311 312 313 314 315 316 317 318 319 319 319 319 319 318 317 316 315 314 313 315 315 313 309 303 297 290 287 283 281 281 278 273 268 266
312 312 313 313 314 315 316 317 318 319 321 322 323 324 323 323 322 322 321 320 318 316 313 315 318 318 315 310 303 296 288 284 281 280 279 275 274 272
315 316 316 317 318 320 321 321 322 323 325 326 327 328 328 328 327 326 325 325 324 322 320 319 319 320 320 320 320 311 298 290 287 287 284 279 277 277
319 319 320 321 323 324 325 326 327 328 330 331 332 333 334 334 334 333 331 330 329 329 328 329 329 326 322 317 318 322 314 303 299 295 293 289 283 281
322 323 324 325 327 329 330 331 332 333 335 336 338 339 340 340 340 340 340 339 338 337 336 337 338 337 333 327 322 322 321 313 305 300 297 295 292 289
325 326 326 328 330 333 334 335 336 337 339 341 342 344 345 346 347 348 349 350 350 349 346 343 343 343 341 337 331 327 325 323 319 313 307 302 298 295
327 327 328 329 332 334 336 337 338 340 342 344 346 348 350 351 353 355 357 358 359 358 355 351 349 347 346 343 340 335 330 328 327 324 320 314 308 304
328 329 329 331 333 335 337 339 340 342 344 346 349 351 353 355 357 360 1 2 1 359 357 355 352 351 351 350 348 345 342 339 336 333 330 328 325 321
Height
5695 5692 5689 5685 5681 5677 5672 5668 5663 5659 5656 5650 5642 5635 5628 5622 5616 5610 5605 5599 5592 5586 5580 5574 5568 5562 5556 5550 5544 5537 5531 5525 5520 5514 5509 5504 5501 5497
5685 5681 5677 5673 5668 5664 5659 5653 5648 5643 5638 5633 5626 5619 5612 5605 5598 5592 5586 5579 5572 5564 5557 5550 5543 5535 5528 5521 5514 5507 5500 5494 5487 5482 5476 5472 5468 5465
5674 5670 5665 5661 5656 5650 5645 5639 5633 5627 5622 5616 5608 5601 5593 5586 5579 5571 5564 5556 5548 5539 5531 5522 5514 5506 5498 5490 5483 5476 5469 5463 5457 5452 5448 5444 5441 5439
5663 5658 5653 5648 5642 5637 5631 5625 5618 5611 5605 5599 5592 5583 5574 5566 5559 5551 5542 5533 5523 5513 5503 5494 5485 5476 5467 5460 5453 5447 5442 5437 5432 5428 5425 5422 5420 5419
5651 5646 5641 5635 5629 5623 5616 5610 5602 5595 5587 5580 5573 5564 5556 5546 5538 5529 5519 5508 5496 5485 5475 5466 5456 5447 5440 5433 5428 5423 5418 5414 5411 5408 5406 5404 5403 5402
5639 5634 5628 5621 5615 5608 5601 5594 5586 5578 5569 5561 5554 5545 5536 5525 5515 5507 5498 5484 5471 5457 5447 5439 5431 5423 5416 5410 5406 5401 5398 5395 5393 5391 5389 5388 5388 5387
5626 5620 5614 5607 5600 5593 5585 5577 5569 5561 5552 5543 5534 5525 5515 5504 5493 5482 5472 5462 5448 5433 5427 5418 5409 5403 5395 5389 5385 5382 5380 5378 5377 5375 5374 5373 5373 5373
5613 5607 5600 5593 5585 5577 5568 5560 5550 5541 5532 5523 5514 5503 5492 5480 5469 5458 5447 5438 5430 5415 5407 5401 5391 5386 5378 5372 5367 5364 5362 5361 5361 5360 5359 5359 5359 5359
5600 5593 5586 5578 5569 5561 5552 5543 5532 5520 5511 5501 5491 5479 5468 5457 5446 5436 5425 5416 5407 5396 5391 5388 5378 5372 5364 5357 5351 5348 5346 5346 5345 5344 5344 5344 5345 5346
5587 5580 5572 5563 5554 5545 5537 5526 5514 5502 5491 5479 5468 5456 5444 5433 5424 5417 5408 5402 5393 5381 5373 5372 5365 5359 5352 5343 5336 5333 5332 5331 5330 5330 5330 5330 5331 5332
5573 5565 5557 5548 5539 5530 5520 5509 5496 5483 5469 5457 5445 5434 5424 5415 5407 5401 5394 5387 5381 5370 5359 5355 5350 5345 5340 5332 5324 5320 5318 5317 5317 5316 5316 5317 5318 5320
5560 5551 5542 5532 5522 5511 5500 5489 5477 5464 5451 5438 5427 5417 5409 5400 5392 5386 5379 5372 5365 5358 5348 5342 5336 5330 5329 5323 5314 5309 5306 5305 5304 5304 5304 5304 5305 5307
5546 5537 5526 5516 5504 5493 5481 5470 5458 5447 5435 5425 5415 5405 5396 5388 5380 5372 5364 5357 5350 5343 5335 5329 5324 5317 5313 5312 5307 5300 5296 5294 5294 5293 5293 5294 5295 5296
5532 5521 5510 5498 5487 5475 5463 5452 5441 5431 5422 5413 5404 5395 5387 5378 5369 5360 5352 5344 5336 5329 5323 5317 5312 5307 5303 5300 5297 5293 5287 5285 5285 5284 5284 5285 5285 5287
5516 5504 5493 5481 5469 5458 5447 5437 5428 5419 5411 5403 5395 5386 5377 5368 5359 5351 5342 5334 5326 5318 5312 5306 5302 5298 5293 5290 5287 5284 5281 5278 5276 5276 5276 5276 5277 5278
5499 5487 5475 5464 5453 5443 5434 5425 5418 5411 5403 5395 5387 5378 5368 5359 5350 5342 5334 5327 5320 5312 5303 5298 5293 5289 5286 5282 5279 5277 5274 5272 5271 5269 5269 5269 5269 5269
5482 5470 5459 5449 5439 5431 5423 5416 5410 5402 5395 5387 5379 5370 5360 5351 5342 5333 5326 5319 5312 5306 5300 5294 5288 5283 5279 5276 5273 5271 5269 5267 5265 5264 5263 5263 5262 5261
5467 5456 5446 5437 5429 5422 5416 5409 5403 5396 5388 5380 5371 5363 5353 5344 5336 5327 5319 5312 5306 5300 5294 5290 5285 5281 5276 5271 5268 5267 5265 5263 5261 5259 5258 5257 5256 5254
5454 5444 5436 5429 5422 5416 5410 5404 5397 5390 5382 5374 5365 5357 5348 5339 5330 5322 5314 5307 5301 5295 5290 5286 5282 5278 5274 5270 5266 5263 5261 5259 5257 5255 5253 5251 5250 5248
5444 5436 5430 5423 5417 5412 5405 5399 5392 5385 5377 5369 5361 5352 5343 5335 5326 5318 5310 5304 5298 5293 5288 5284 5280 5276 5272 5269 5265 5262 5258 5256 5253 5251 5248 5245 5242 5240
5437 5431 5425 5419 5413 5407 5401 5395 5388 5381 5374 5366 5357 5349 5341 5332 5324 5316 5308 5302 5296 5291 5287 5283 5279 5274 5270 5267 5263 5260 5256 5252 5248 5245 5242 5239 5236 5232
5432 5426 5421 5415 5410 5404 5398 5391 5385 5378 5370 5363 5355 5347 5339 5331 5323 5315 5308 5302 5297 5292 5287 5282 5278 5274 5269 5265 5261 5258 5254 5249 5245 5240 5236 5232 5228 5225
5428 5422 5417 5412 5407 5401 5395 5388 5381 5375 5368 5360 5353 5345 5338 5330 5323 5316 5310 5304 5298 5293 5288 5283 5278 5273 5268 5264 5260 5255 5251 5247 5242 5237 5232 5227 5223 5218